Other Surface Observations
Issued by NWS

Home | Current Version | Previous Version | Text Only | Print | Product List | Glossary On
Versions: 1 2 3 4 5 6 7 8 9 10 11 12 13 14 15 16 17 18 19 20 21 22 23 24 25 26 27 28 29 30 31 32 33 34 35 36 37 38 39 40 41 42 43 44 45 46 47 48 49 50
388
SXUS52 KTAE 210606
OSOTAE
OSOTAE
North Florida/South Alabama/Southwest Georgia Weather Roundup
National Weather Service Tallahassee Florida
200 AM EDT SAT OCT 21 2017

Note: "fair" indicates few or no clouds below 12,000 feet with no
significant weather and/or obstructions to visibility.

!FLZ017-115-028-034-025-210700
...North Florida...

CITY           SKY/WX    TMP DP  RH WIND       PRES   REMARKS
TALLAHASSEE    CLEAR     69  66  90 E8        30.14F
APALACHICOLA   MOCLDY    77  68  73 E14G21    30.11S
PERRY          CLEAR     68  65  92 NE3       30.15F
CROSS CITY     PTCLDY    68  66  93 NE7       30.18S
JACKSONVILLE   MOCLDY    72  68  87 NE5       30.15F
$$

!FLZ112-006-005-002-011-210700
...Florida Panhandle...

CITY           SKY/WX    TMP DP  RH WIND       PRES   REMARKS
MARIANNA       CLOUDY    64  56  75 E5        30.14F
BONIFAY        NOT AVBL
PANAMA CITY NW FAIR      69  60  73 E7        30.11F
TYNDALL AFB    PTCLDY    71  64  79 E7        30.12S
TYND DRONE APT FAIR      72  66  81 E8        30.11F
DE FUNIAK SPR  FAIR      66  55  66 E9        30.13F
EGLIN AFB      MOCLDY    71  57  61 E5        30.11S
DESTIN         PTCLDY    75  60  59 E8        30.11F
HURLBURT       PTCLDY    68  60  74 E6        30.09F
CRESTVIEW      PTCLDY    62  58  86 CALM      30.13F
PENSACOLA      PTCLDY    72  59  63 NE6       30.10F
$$

!ALZ063-066-210700
...South Alabama...

CITY           SKY/WX    TMP DP  RH WIND       PRES   REMARKS
DOTHAN         PTCLDY    65  52  62 E6        30.19S
OZARK CAIRNS   CLEAR     61  51  70 NE7       30.15S
FT RUCKER HELI CLOUDY    62  52  67 CALM      30.14F
RUCKER HELI 3  FAIR      64  49  58 E3        30.15S
RUCKER HELI 2  FAIR      64  52  65 E5        30.14F
FLORALA APT    PTCLDY    65  53  65 E5        30.16S
ANDALUSIA      PTCLDY    66  54  65 E3        30.13F
TROY           MOCLDY    58  55  90 N3        30.16F
EUFALA         FAIR      57  54  89 CALM      30.17S
MOBILE         MOCLDY    69  62  78 NE3       30.11S
$$

!GAZ120>161-210700
...Southwest and South Central Georgia...

CITY           SKY/WX    TMP DP  RH WIND       PRES   REMARKS
THOMASVILLE    FAIR      66  66 100 E5        30.18F
BAINBRIDGE     CLOUDY    64  63  94 E3        30.16F
MOODY AFB      CLOUDY    66  64  93 E5        30.17F
VALDOSTA       CLOUDY    67  64  90 NE6       30.17F
MOULTRIE       CLOUDY    64  63  94 CALM      30.19S
BLAKELY        PTCLDY    61  54  77 CALM      30.18S
ALBANY         CLOUDY    60  52  74 CALM      30.20S
TIFTON         FAIR      60  60 100 CALM      30.19S
FITZGERALD     FAIR      61  61 100 CALM      30.22S FOG
CORDELE        FAIR      59  53  81 NE3       30.21F
AMERICUS       FAIR      54  46  76 CALM      30.22S
HOMERVILLE     FAIR      63  63 100 E3        30.19S
$$

!GMZ750-755-770-775-210700
...Coastal and Buoy Obs...

STATION/POSITION TIME  TEMP    WIND        PRES    VSBY  WAVE
                       AIR SEA DIR/SP/G                  HT/PER
                 (UTC) (F)     (DEG/KT/KT) (MB)    (MI)  (FT/S)
KEATON BEACH     0600   68      50/  6/  9 1019.9F
CEDAR KEY        0500   72      60/ 10/ 11 1020.3F
C TOWER          0600   78     120/ 21/ 23 1019.8F
APALACHICOLA BUO 0450   79 81  110/ 19/ 25 1018.2          6/ 6
PANAMA CITY BUOY 0550   81 81  100/ 19/ 25 1017.4F         4/ 6
MOBILE BUOY      0550   80 81  110/ 19/ 25 1018.0F         7/ 7
ORANGE BCH AL BU 0450   79 79  100/ 14/ 14 1018.7          3/ 6
$$




USA.gov is the U.S. government's official web portal to all federal, state and local government web resources and services.